This is the latest recevied weather packets stored in our database for station/object KK7MLS-13. If no packets are shown the sender has not sent any weather packets the latest 10 day(s).
| Time | Temp. | Humidity | Pressure | Rain* | Wind** | Luminosity | Snow |
|---|---|---|---|---|---|---|---|
| 1777732399 | 10° C | 86% | 1016.6 hPa | 0 mm | - | 76 W/m² | - |
| 1777732097 | 10° C | 87% | 1016.4 hPa | 0 mm | - | 71 W/m² | - |
| 1777731794 | 10° C | 88% | 1016.5 hPa | 0 mm | - | 70 W/m² | - |
| 1777731490 | 10° C | 87% | 1016.5 hPa | 0 mm | - | 62 W/m² | - |
| 1777731189 | 10° C | 87% | 1016.5 hPa | 0 mm | - | 50 W/m² | - |
| 1777730886 | 10° C | 87% | 1016.6 hPa | 0 mm | - | 43 W/m² | - |
| 1777730584 | 10° C | 87% | 1016.6 hPa | 0 mm | - | 37 W/m² | - |
| 1777730280 | 10° C | 88% | 1016.6 hPa | 0 mm | - | 31 W/m² | - |
| 1777729976 | 10° C | 87% | 1016.6 hPa | 0 mm | - | 26 W/m² | - |
| 1777729672 | 10° C | 88% | 1016.6 hPa | 0 mm | - | 22 W/m² | - |
| 1777729369 | 10° C | 87% | 1016.5 hPa | 0 mm | - | 20 W/m² | - |
| 1777729066 | 10° C | 88% | 1016.6 hPa | 0 mm | - | 17 W/m² | - |
| 1777728763 | 10° C | 88% | 1016.8 hPa | 0 mm | - | 15 W/m² | - |
| 1777728459 | 10° C | 88% | 1016.5 hPa | 0 mm | - | 10 W/m² | - |
| 1777728157 | 10° C | 88% | 1016.7 hPa | 0 mm | - | 7 W/m² | - |
| 1777727853 | 10° C | 88% | 1016.3 hPa | 0 mm | - | 6 W/m² | - |
| 1777727551 | 10° C | 89% | 1016.4 hPa | 0 mm | - | 4 W/m² | - |
| 1777727248 | 10° C | 89% | 1016.3 hPa | 0 mm | - | 3 W/m² | - |
| 1777726945 | 10° C | 91% | 1016.4 hPa | 0 mm | - | 2 W/m² | - |
| 1777726641 | 10° C | 91% | 1016.3 hPa | 0 mm | - | 1 W/m² | - |
| 1777726340 | 10° C | 91% | 1016.2 hPa | 0 mm | - | 1 W/m² | - |
| 1777726036 | 10° C | 92% | 1016.3 hPa | 0 mm | - | 0 W/m² | - |
| 1777725733 | 9.44° C | 92% | 1016.3 hPa | 0 mm | - | 0 W/m² | - |
| 1777725431 | 9.44° C | 93% | 1016.2 hPa | 0 mm | - | 0 W/m² | - |
| 1777725128 | 9.44° C | 93% | 1016.2 hPa | 0 mm | - | 0 W/m² | - |
* Rain latest hour (hover to see other rain measurements)
** Current wind speed in m/s (hover to see current wind gust speed)